This demonstration page uses our WeatherBlox Daily Observations layout. Learn more.

Left ArrowRight Arrow

31.31129, -92.44514

Hourly Observations for October 9, 2015

Temp ( °F °C ) Dew Point ( °F °C ) Humidity (%) Winds ( mph kmh ) Pressure ( in mb ) Visibility ( mi km ) Precip ( " mm )
12:53 am 00:53 Clear 73 22.8 68 20 84 84 Calm 30.02 1017 9 14 0.00 0.00
1:53 am 01:53 Clear 71 21.7 68 20 90 90 SE 5 7 30.03 1017 8 13 0.00 0.00
2:53 am 02:53 Partly Cloudy 71 21.7 69 20.6 94 94 Calm 30.03 1017 8 13 0.00 0.00
3:53 am 03:53 Mostly Clear 71 21.7 68 20 90 90 SE 5 7 30.04 1017 8 13 0.00 0.00
4:53 am 04:53 Clear 71 21.7 69 20.6 94 94 Calm 30.04 1017 8 13 0.00 0.00
5:53 am 05:53 Mostly Cloudy 71 21.7 69 20.6 94 94 SSE 3 6 30.06 1018 8 13 0.00 0.00
6:53 am 06:53 Partly Cloudy 70 21.1 68 20 93 93 Calm 30.08 1019 7 11 0.00 0.00
7:53 am 07:53 Sunny with Mist and Fog 71 21.7 69 20.6 94 94 S 3 6 30.09 1019 5 8 0.00 0.00
8:53 am 08:53 Partly Cloudy with Mist and Fog 74 23.3 70 21.1 88 88 Calm 30.10 1019 6 10 0.00 0.00
9:53 am 09:53 Sunny 79 26.1 68 20 69 69 WSW 6 9 30.11 1020 10 16 0.00 0.00
10:53 am 10:53 Sunny 83 28.3 67 19.4 59 59 W 6 9 30.11 1020 10 16 0.00 0.00
11:53 am 11:53 Mostly Sunny 86 30 67 19.4 53 53 VRB 7 11 30.09 1019 10 16 0.00 0.00
12:53 pm 12:53 Sunny 88 31.1 65 18.3 46 46 Calm 30.06 1018 9 14 0.00 0.00
1:53 pm 13:53 Sunny 89 31.7 66 18.9 47 47 Calm 30.03 1017 10 16 0.00 0.00
2:53 pm 14:53 Partly Cloudy 88 31.1 63 17.2 43 43 Calm 30.00 1016 10 16 0.00 0.00
3:53 pm 15:53 Sunny 91 32.8 63 17.2 39 39 W 5 7 29.98 1015 10 16 0.00 0.00
4:53 pm 16:53 Sunny 91 32.8 61 16.1 37 37 VRB 5 7 29.98 1015 10 16 0.00 0.00
5:53 pm 17:53 Mostly Sunny 88 31.1 62 16.7 42 42 WNW 5 7 29.98 1015 9 14 0.00 0.00
6:53 pm 18:53 Mostly Cloudy 82 27.8 67 19.4 60 60 N 3 6 30.00 1016 10 16 0.00 0.00
7:53 pm 19:53 Clear 80 26.7 65 18.3 60 60 WSW 5 7 30.01 1016 10 16 0.00 0.00
8:53 pm 20:53 Clear 78 25.6 65 18.3 64 64 WSW 3 6 30.03 1017 9 14 0.00 0.00
9:53 pm 21:53 Clear 75 23.9 64 17.8 69 69 W 3 6 30.03 1017 9 14 0.00 0.00
10:53 pm 22:53 Clear 76 24.4 66 18.9 72 72 N 6 9 30.05 1018 9 14 0.00 0.00
11:53 pm 23:53 Mostly Clear 75 23.9 64 17.8 69 69 NNE 12 19 30.08 1019 10 16 0.00 0.00

Powered by AerisWeather